EWG26K LCLK-EDDH

Flight info

Callsign EWG26K
Flight time N/A
Altitude 36000
Route RUDER M13 BAPAX DCT VESAR UL619 OSVEL UQ23 OSDAN UQ26 BKZ/N0448F360 UQ26 TUDBU DCT AMTOV DCT UPAMA DCT APROB DCT VIKBI DCT LAMIT DCT EKNAB DCT DEGET DCT MAVOR DCT KATQA DCT ODLIV DCT HDO DCT SOGMA M748 RARUP RARUP6A
Aircraft A320/M-SDE3FGHIRWY/LB1

Departure

Time N/A
Airport Larnaca International Airport (LCLK)

Arrival

Time 2026-04-30 18:39
Airport Hamburg Helmut Schmidt Airport (EDDH)
Time Latitude Longitude Altitude Speed Heading
2026-04-30 17:39 48.90017 17.41935 36384 ft 427 kts 323°
2026-04-30 17:42 49.11179 17.09995 36395 ft 429 kts 321°
2026-04-30 17:43 49.21560 16.93690 36371 ft 429 kts 322°
2026-04-30 17:44 49.34054 16.74028 36399 ft 429 kts 321°
2026-04-30 17:47 49.52009 16.45499 36409 ft 429 kts 322°
2026-04-30 17:48 49.66434 16.22352 36399 ft 428 kts 322°
2026-04-30 17:50 50.19068 15.35966 36415 ft 425 kts 322°
2026-04-30 17:52 50.70592 14.61884 36382 ft 413 kts 332°
2026-04-30 17:54 50.99951 14.27098 36399 ft 419 kts 326°
2026-04-30 17:56 51.17574 14.02760 36439 ft 419 kts 326°
2026-04-30 17:58 51.30764 13.84365 36442 ft 419 kts 326°
2026-04-30 18:00 51.48273 13.59728 36438 ft 419 kts 326°
2026-04-30 18:01 51.59195 13.44194 36425 ft 419 kts 325°
2026-04-30 18:02 51.72246 13.25539 36441 ft 419 kts 325°
2026-04-30 18:04 51.85282 13.06730 36429 ft 418 kts 324°
2026-04-30 18:06 52.02938 12.82474 36408 ft 416 kts 326°
2026-04-30 18:08 52.18423 12.61225 36431 ft 416 kts 325°
2026-04-30 18:10 52.36084 12.36816 36410 ft 416 kts 324°
2026-04-30 18:11 52.51497 12.15280 36418 ft 417 kts 324°
2026-04-30 18:12 52.58110 12.05949 35644 ft 417 kts 323°
2026-04-30 18:13 52.62514 11.99728 35146 ft 416 kts 323°
2026-04-30 18:13 52.68329 11.91502 34256 ft 410 kts 323°
2026-04-30 18:14 52.73323 11.84393 33094 ft 401 kts 323°
2026-04-30 18:15 52.79548 11.75503 31670 ft 391 kts 323°
2026-04-30 18:15 52.85647 11.66774 30239 ft 382 kts 323°
2026-04-30 18:16 52.89602 11.61092 29393 ft 371 kts 323°
2026-04-30 18:16 52.93448 11.55549 28573 ft 362 kts 323°
2026-04-30 18:17 52.95335 11.52825 28172 ft 357 kts 323°
2026-04-30 18:17 52.97203 11.50125 27774 ft 353 kts 323°
2026-04-30 18:17 53.00870 11.44813 26986 ft 346 kts 324°
2026-04-30 18:18 53.02675 11.42199 26593 ft 343 kts 324°
2026-04-30 18:18 53.04468 11.39599 26198 ft 340 kts 324°
2026-04-30 18:18 53.06224 11.37051 25795 ft 338 kts 324°
2026-04-30 18:18 53.07987 11.34487 25407 ft 336 kts 324°
2026-04-30 18:19 53.09742 11.31934 24988 ft 335 kts 324°
2026-04-30 18:19 53.11494 11.29382 24571 ft 333 kts 325°
2026-04-30 18:19 53.13343 11.27087 24114 ft 334 kts 330°
2026-04-30 18:19 53.15297 11.24852 23579 ft 345 kts 330°
2026-04-30 18:20 53.17280 11.22574 23078 ft 347 kts 330°
2026-04-30 18:20 53.19263 11.20281 22587 ft 346 kts 330°
2026-04-30 18:20 53.21240 11.17989 22104 ft 346 kts 330°
2026-04-30 18:20 53.23217 11.15700 21606 ft 345 kts 330°
2026-04-30 18:21 53.25191 11.13416 21116 ft 345 kts 330°
2026-04-30 18:21 53.27165 11.11131 20626 ft 345 kts 330°
2026-04-30 18:21 53.29137 11.08841 20130 ft 346 kts 330°
2026-04-30 18:21 53.31116 11.06543 19651 ft 346 kts 330°
2026-04-30 18:22 53.32978 11.03993 19300 ft 348 kts 317°
2026-04-30 18:22 53.34862 10.96443 18307 ft 366 kts 279°
2026-04-30 18:22 53.35125 10.92201 17773 ft 367 kts 278°
2026-04-30 18:23 53.35378 10.87951 17259 ft 368 kts 278°
2026-04-30 18:23 53.35628 10.83679 16730 ft 369 kts 278°
2026-04-30 18:23 53.35876 10.79458 16233 ft 369 kts 277°
2026-04-30 18:23 53.36129 10.75180 15738 ft 370 kts 277°
2026-04-30 18:24 53.36641 10.66627 14885 ft 366 kts 277°
2026-04-30 18:24 53.36893 10.62400 14533 ft 363 kts 277°
2026-04-30 18:24 53.37145 10.58154 14168 ft 360 kts 277°
2026-04-30 18:25 53.37386 10.54061 13771 ft 357 kts 277°
2026-04-30 18:25 53.37857 10.45845 12988 ft 351 kts 277°
2026-04-30 18:25 53.38084 10.41791 12636 ft 347 kts 277°
2026-04-30 18:26 53.38528 10.33851 12060 ft 336 kts 277°
2026-04-30 18:26 53.38747 10.29973 11755 ft 332 kts 276°
2026-04-30 18:26 53.38962 10.26148 11459 ft 328 kts 276°
2026-04-30 18:27 53.39382 10.18629 10874 ft 320 kts 276°
2026-04-30 18:27 53.39585 10.14936 10586 ft 316 kts 276°
2026-04-30 18:28 53.39972 10.07766 9969 ft 297 kts 276°
2026-04-30 18:28 53.40152 10.04394 9662 ft 284 kts 276°
2026-04-30 18:28 53.40496 9.97976 9053 ft 273 kts 276°
2026-04-30 18:29 53.40663 9.94816 8739 ft 271 kts 276°
2026-04-30 18:29 53.40921 9.85470 7833 ft 266 kts 258°
2026-04-30 18:30 53.40203 9.80491 7348 ft 264 kts 254°
2026-04-30 18:30 53.39597 9.73560 6664 ft 259 kts 288°
2026-04-30 18:31 53.40343 9.70852 6357 ft 256 kts 302°
2026-04-30 18:31 53.42199 9.65807 5516 ft 251 kts 304°
2026-04-30 18:32 53.43815 9.61807 4894 ft 246 kts 316°
2026-04-30 18:32 53.45224 9.60350 4498 ft 234 kts 349°
2026-04-30 18:32 53.47957 9.61838 3887 ft 211 kts 58°
2026-04-30 18:33 53.48458 9.64097 3672 ft 206 kts 81°
2026-04-30 18:33 53.48849 9.68787 3264 ft 201 kts 84°
2026-04-30 18:33 53.49255 9.70997 3096 ft 196 kts 61°
2026-04-30 18:34 53.50073 9.72739 2993 ft 186 kts 52°
2026-04-30 18:34 53.51709 9.76020 3010 ft 182 kts 52°
2026-04-30 18:34 53.52513 9.77632 2898 ft 182 kts 52°
2026-04-30 18:35 53.53324 9.79258 2700 ft 181 kts 52°
2026-04-30 18:35 53.54129 9.80873 2460 ft 179 kts 52°
2026-04-30 18:35 53.54928 9.82478 2226 ft 179 kts 52°
2026-04-30 18:36 53.56450 9.85535 1758 ft 158 kts 53°
2026-04-30 18:36 53.57133 9.86908 1545 ft 149 kts 52°
2026-04-30 18:36 53.58389 9.89438 1177 ft 137 kts 53°
2026-04-30 18:37 53.58995 9.90659 994 ft 135 kts 52°
2026-04-30 18:37 53.59602 9.91885 801 ft 137 kts 52°
2026-04-30 18:37 53.60209 9.93106 630 ft 135 kts 52°
2026-04-30 18:37 53.60803 9.94302 452 ft 134 kts 52°
2026-04-30 18:38 53.61401 9.95513 258 ft 135 kts 51°
2026-04-30 18:38 53.61992 9.96721 87 ft 134 kts 46°
2026-04-30 18:38 53.62549 9.97831 41 ft 102 kts 50°
2026-04-30 18:38 53.62891 9.98528 44 ft 53 kts 50°
2026-04-30 18:39 53.63050 9.98859 46 ft 32 kts 57°
2026-04-30 18:39 53.63091 9.99146 46 ft 13 kts 92°
2026-04-30 18:39 53.63088 9.99191 47 ft 0 kts 98°
2026-04-30 18:40 53.63083 9.99241 45 ft 11 kts 99°
2026-04-30 18:40 53.63090 9.99368 44 ft 1 kts 61°
2026-04-30 18:42 53.63091 9.99371 45 ft 1 kts 60°
2026-04-30 18:42 53.63127 9.99466 46 ft 20 kts 55°
2026-04-30 18:45 53.63373 10.00345 48 ft 0 kts 86°